www.pogodaiklimat.ru

Погода и климат >> Архив погоды >> Австралия >> Северная территория >> Порт Китс


ПОГОДА в Порт Китс

  • Прогноз погоды в Порт Китс
  • Монитор погоды в Порт Китс

АРХИВ ПОГОДЫ в Порт Китс

Время (UTC), дата Ветер
(напр.,м/с)
 
Видим.   Явления Облачность Т
(С)
Тd
(С)
f
(%)
Тe
(С)
Тes
(С)
Комфортность P
(гПа)
Po
(гПа)
Тmin
(С)
Tmax
(С)
R
(мм)
R24
(мм)
S
(см)
08 19.03 З 3 н/о н/о +32.7 +23.3 58 +43 +43 опасность
перегрева
1005.6 1002.3
09 19.03 З 3 н/о н/о +31.5 +23.9 64 +43 +43 опасность
перегрева
1006.1 1002.8
11 19.03 штиль 0 н/о н/о +29.1 +24.0 74 +40 +40 очень
душно
1008.0 1004.7
12 19.03 З 1 н/о н/о +28.3 +24.1 78 +39 +39 очень
душно
1008.4 1005.1
14 19.03 штиль 0 н/о н/о +26.9 +24.2 85 +37 +37 очень
душно
1008.6 1005.3 +33.5
15 19.03 штиль 0 н/о н/о +26.7 +24.4 87 +37 +37 очень
душно
1008.1 1004.8
17 19.03 штиль 0 н/о н/о +27.0 +24.3 85 +38 +38 очень
душно
1006.2 1002.9
18 19.03 штиль 0 н/о н/о +26.9 +24.2 85 +37 +37 очень
душно
1005.7 1002.4
20 19.03 З 1 н/о н/о +25.9 +24.1 90 +36 +36 очень
душно
1006.4 1003.1
21 19.03 штиль 0 н/о н/о +25.6 +23.7 89 +35 +35 очень
душно
1006.8 1003.5
23 19.03 З 2 н/о н/о +29.1 +24.9 78 +42 +42 опасность
перегрева
1008.5 1005.2
00 20.03 З 4 н/о н/о +30.8 +23.2 64 +41 +41 опасность
перегрева
1009.2 1005.9
02 20.03 З 4 н/о н/о +31.6 +23.2 61 +42 +42 опасность
перегрева
1009.3 1006.0 +25.2
03 20.03 З 5 н/о н/о +31.6 +23.7 63 +43 +43 опасность
перегрева
1008.6 1005.3
05 20.03 З 4 н/о н/о +32.9 +23.0 56 +43 +43 опасность
перегрева
1007.0 1003.7
06 20.03 З 4 н/о н/о +33.5 +23.8 57 +45 +45 опасность
перегрева
1006.4 1003.1
08 20.03 СЗ 4 н/о н/о +31.9 +23.7 62 +43 +43 опасность
перегрева
1006.4 1003.1
09 20.03 З 3 н/о н/о +30.8 +24.0 67 +42 +42 опасность
перегрева
1006.8 1003.5
11 20.03 СЗ 1 н/о н/о +28.8 +23.9 75 +40 +40 очень
душно
1008.4 1005.1
12 20.03 С 1 н/о н/о +28.7 +24.5 78 +41 +41 опасность
перегрева
1008.9 1005.6
14 20.03 З 2 н/о н/о +26.9 +24.4 86 +38 +38 очень
душно
1008.3 1005.0 +34.0
15 20.03 СЗ 1 н/о н/о +26.7 +24.2 86 +37 +37 очень
душно
1007.7 1004.4
17 20.03 З 2 н/о н/о +28.9 +25.3 81 +42 +42 опасность
перегрева
1006.3 1003.0
18 20.03 З 2 н/о н/о +29.0 +25.6 82 +43 +43 опасность
перегрева
1005.8 1002.5
20 20.03 З 2 н/о н/о +28.7 +25.3 82 +42 +42 опасность
перегрева
1005.9 1002.6
21 20.03 З 3 н/о н/о +28.7 +25.3 82 +42 +42 опасность
перегрева
1006.4 1003.1
23 20.03 ЮЗ 3 н/о н/о +30.4 +24.3 70 +42 +42 опасность
перегрева
1007.9 1004.6
00 21.03 З 3 н/о н/о +31.8 +24.9 67 +45 +45 опасность
перегрева
1008.6 1005.3
02 21.03 З 4 н/о н/о +33.3 +23.0 55 +44 +44 опасность
перегрева
1008.2 1004.9 +26.7
03 21.03 З 5 н/о н/о +32.8 +22.0 53 +41 +41 опасность
перегрева
1007.3 1004.0
05 21.03 З 3 н/о н/о +34.1 +21.9 49 +43 +43 опасность
перегрева
1005.5 1002.2
06 21.03 З 4 н/о н/о +33.4 +22.5 53 +43 +43 опасность
перегрева
1005.0 1001.7
08 21.03 З 4 н/о н/о +32.4 +23.4 59 +43 +43 опасность
перегрева
1004.7 1001.4
09 21.03 СЗ 4 н/о н/о +30.9 +23.3 64 +41 +41 опасность
перегрева
1004.8 1001.5
11 21.03 СЗ 3 н/о н/о +30.1 +25.2 75 +44 +44 опасность
перегрева
1005.9 1002.6
12 21.03 СЗ 3 н/о н/о +30.2 +25.3 75 +44 +44 опасность
перегрева
1006.7 1003.4
14 21.03 С 3 н/о н/о +30.2 +25.7 77 +45 +45 опасность
перегрева
1007.2 1003.9 +35.1
17 21.03 З 3 н/о н/о +29.9 +25.2 76 +43 +43 опасность
перегрева
1005.5 1002.2
18 21.03 З 3 н/о н/о +29.8 +25.1 76 +43 +43 опасность
перегрева
1005.7 1002.4
23 21.03 З 4 н/о н/о +30.4 +22.8 64 +40 +40 очень
душно
1006.6 1003.3
02 22.03 З 3 н/о н/о +32.9 +23.0 56 +43 +43 опасность
перегрева
1007.3 1004.0 +29.4
03 22.03 СЗ 4 н/о н/о +33.2 +22.3 53 +42 +42 опасность
перегрева
1006.3 1003.0
05 22.03 З 4 н/о н/о +33.5 +23.2 55 +44 +44 опасность
перегрева
1004.3 1001.0
06 22.03 З 4 н/о н/о +33.7 +23.7 56 +45 +45 опасность
перегрева
1003.9 1000.6
08 22.03 СЗ 5 н/о н/о +31.6 +24.0 64 +43 +43 опасность
перегрева
1003.8 1000.5
09 22.03 СЗ 5 н/о н/о +31.1 +25.0 70 +45 +45 опасность
перегрева
1003.8 1000.5
11 22.03 СЗ 4 н/о н/о +30.5 +25.8 76 +45 +45 опасность
перегрева
1005.8 1002.5
12 22.03 СЗ 3 н/о н/о +30.7 +26.0 76 +46 +46 опасность
перегрева
1006.0 1002.7
14 22.03 С 3 н/о н/о +30.7 +26.2 77 +46 +46 опасность
перегрева
1006.7 1003.4 +34.7
15 22.03 С 4 н/о н/о +27.9 +23.7 78 +38 +38 очень
душно
1006.7 1003.4
17 22.03 СЗ 4 н/о н/о +28.7 +24.9 80 +41 +41 опасность
перегрева
1005.1 1001.8
18 22.03 СЗ 4 н/о н/о +29.2 +25.2 79 +42 +42 опасность
перегрева
1004.5 1001.2
20 22.03 СЗ 3 н/о н/о +29.6 +25.6 79 +44 +44 опасность
перегрева
1004.9 1001.6
21 22.03 З 3 н/о н/о +29.7 +24.8 75 +42 +42 опасность
перегрева
1004.6 1001.3
23 22.03 З 4 н/о н/о +30.4 +24.3 70 +42 +42 опасность
перегрева
1005.5 1002.2
00 23.03 З 4 н/о н/о +31.3 +24.2 66 +43 +43 опасность
перегрева
1006.5 1003.2
02 23.03 З 6 н/о н/о +31.3 +23.7 64 +42 +42 опасность
перегрева
1006.2 1002.9 +27.9
03 23.03 З 5 н/о н/о +31.7 +23.2 61 +42 +42 опасность
перегрева
1006.0 1002.7
05 23.03 З 5 н/о н/о +31.9 +24.0 63 +44 +44 опасность
перегрева
1004.4 1001.1
06 23.03 З 5 н/о н/о +31.7 +24.8 67 +45 +45 опасность
перегрева
1003.9 1000.6
08 23.03 З 4 н/о н/о +31.3 +25.2 70 +45 +45 опасность
перегрева
1003.4 1000.2
09 23.03 СЗ 5 н/о н/о +30.9 +24.8 70 +44 +44 опасность
перегрева
1003.4 1000.2
11 23.03 З 4 н/о н/о +30.6 +25.2 73 +44 +44 опасность
перегрева
1004.9 1001.6
12 23.03 З 4 н/о н/о +30.4 +25.2 74 +44 +44 опасность
перегрева
1005.4 1002.1
14 23.03 З 4 н/о н/о +30.7 +25.1 72 +44 +44 опасность
перегрева
1006.1 1002.8 +33.1
15 23.03 ЮВ 9 н/о н/о +23.3 +21.7 91 +32 +32 очень
душно
1007.3 1004.0
17 23.03 Ю 2 н/о туман местами н/о +24.1 +22.9 93 +32 +32 очень
душно
1006.0 1002.7 43
18 23.03 В 1 н/о н/о +24.5 +23.3 93 +33 +33 очень
душно
1005.4 1002.1
20 23.03 З 3 н/о {туман} н/о +25.8 +24.2 91 +36 +36 очень
душно
1003.3 1000.1
21 23.03 ЮВ 3 н/о н/о +26.0 +24.2 90 +36 +36 очень
душно
1004.7 1001.4
23 23.03 З 3 н/о {туман} н/о +29.4 +25.2 78 +43 +43 опасность
перегрева
1006.3 1003.0 44
00 24.03 З 5 н/о н/о +31.0 +24.6 69 +44 +44 опасность
перегрева
1007.3 1004.0
02 24.03 ЮЗ 4 н/о н/о +31.1 +23.0 62 +41 +41 опасность
перегрева
1007.5 1004.2 +22.9
03 24.03 З 5 н/о н/о +31.4 +24.0 65 +43 +43 опасность
перегрева
1007.2 1003.9
05 24.03 З 5 н/о н/о +32.1 +23.9 62 +44 +44 опасность
перегрева
1005.3 1002.0
06 24.03 З 3 н/о н/о +32.7 +24.5 62 +45 +45 опасность
перегрева
1004.9 1001.6
08 24.03 СЗ 4 н/о н/о +30.7 +24.6 70 +43 +43 опасность
перегрева
1005.2 1001.9
09 24.03 СЗ 4 н/о н/о +30.2 +25.3 75 +44 +44 опасность
перегрева
1005.3 1002.0
11 24.03 СЗ 4 н/о н/о +29.7 +25.0 76 +43 +43 опасность
перегрева
1006.8 1003.5
12 24.03 СЗ 4 н/о н/о +29.7 +25.0 76 +43 +43 опасность
перегрева
1007.3 1004.0
14 24.03 З 4 н/о н/о +29.7 +25.0 76 +43 +43 опасность
перегрева
1008.1 1004.8 +33.4
15 24.03 З 3 н/о н/о +29.6 +24.9 76 +42 +42 опасность
перегрева
1007.9 1004.6
17 24.03 З 3 н/о н/о +29.2 +23.4 71 +40 +40 очень
душно
1006.9 1003.6
18 24.03 З 3 н/о н/о +29.1 +24.2 75 +41 +41 опасность
перегрева
1006.7 1003.4
20 24.03 З 3 н/о н/о +29.0 +23.9 74 +40 +40 очень
душно
1007.4 1004.1
21 24.03 З 4 н/о н/о +28.9 +23.8 74 +40 +40 очень
душно
1007.8 1004.5
23 24.03 З 3 н/о н/о +30.5 +23.2 65 +41 +41 опасность
перегрева
1009.3 1006.0
00 25.03 З 4 н/о н/о +31.0 +22.6 61 +41 +41 опасность
перегрева
1009.5 1006.2
02 25.03 З 4 н/о н/о +31.5 +23.1 61 +42 +42 опасность
перегрева
1009.4 1006.1 +28.8
03 25.03 З 4 н/о н/о +32.3 +23.5 60 +43 +43 опасность
перегрева
1008.8 1005.5
05 25.03 СЗ 5 н/о н/о +31.8 +23.1 60 +42 +42 опасность
перегрева
1007.7 1004.4
06 25.03 СЗ 5 н/о н/о +31.6 +23.7 63 +43 +43 опасность
перегрева
1007.1 1003.8
08 25.03 СЗ 4 н/о н/о +31.1 +23.2 63 +42 +42 опасность
перегрева
1007.3 1004.0
09 25.03 СЗ 3 н/о н/о +30.3 +23.0 65 +40 +40 очень
душно
1007.8 1004.5
11 25.03 СЗ 2 н/о н/о +29.1 +24.7 77 +41 +41 опасность
перегрева
1009.3 1006.0
12 25.03 СЗ 2 н/о н/о +29.1 +24.4 76 +41 +41 опасность
перегрева
1009.8 1006.5
14 25.03 СЗ 4 н/о н/о +29.5 +24.1 73 +41 +41 опасность
перегрева
1009.5 1006.2 +32.8
15 25.03 СЗ 3 н/о н/о +29.4 +24.7 76 +42 +42 опасность
перегрева
1009.3 1006.0
17 25.03 СЗ 3 н/о н/о +29.2 +24.7 77 +42 +42 опасность
перегрева
1008.7 1005.4
18 25.03 З 2 н/о н/о +29.1 +25.1 79 +42 +42 опасность
перегрева
1008.7 1005.4
20 25.03 З 3 н/о н/о +29.1 +24.9 78 +42 +42 опасность
перегрева
1008.7 1005.4
21 25.03 З 3 н/о н/о +29.0 +25.0 79 +42 +42 опасность
перегрева
1009.0 1005.7
23 25.03 З 3 н/о н/о +30.0 +25.3 76 +44 +44 опасность
перегрева
1010.2 1006.9
00 26.03 З 4 н/о н/о +30.6 +25.2 73 +44 +44 опасность
перегрева
1010.5 1007.2
02 26.03 В 4 н/о в посл. час дождь {туман} н/о +24.4 +23.0 92 +32 +32 очень
душно
1011.7 1008.4 +28.9
03 26.03 В 3 н/о н/о +23.7 +22.1 91 +31 +31 очень
душно
1010.3 1007.0
05 26.03 СВ 2 н/о туман местами н/о +24.3 +22.7 91 +32 +32 очень
душно
1009.0 1005.7 22
06 26.03 ЮВ 2 н/о н/о +25.0 +23.2 90 +33 +33 очень
душно
1008.5 1005.2

 

Местоположение метеостанции Порт Китс (Северная территория, Австралия): широта -14.25 долгота 129.53 высота над уровнем моря 29 м.

В архиве по умолчанию представлена погода в Порт Китс за последнюю неделю. Архивные данные за месяц целиком и за предыдущие месяцы, начиная с января 2011 года, Вы можете получить, выбрав интересующий диапазон дат из раскрывающегося списка и нажав кнопку "Ввод!".


*Определитесь, кто Вы:
робот инопланетянин человек

Внимание! Время в таблицах - всемирное. Для получения местного времени необходимо прибавить поправку, которая равна 9.5 ч.

Смотрите также архив погоды в соседних городах и на ближайших метеорологических станциях:

Погода в Манбуллу Ксиро (Северная территория, Австралия) (157 км)
Погода на Маяке Кейп-Дон (Северная территория, Австралия) (184 км)
Погода в Кунунарре (Западная Австралия, Австралия) (192 км)
Погода на Острове Дам-ин-Мирре (Северная территория, Австралия) (202 км)
Погода в Уиндеме (Западная Австралия, Австралия) (203 км)
Погода в Батчелоре (Северная территория, Австралия) (209 км)
Погода в Дарвине (Северная территория, Австралия) (251 км)
Погода в Милд Пойнт (Северная территория, Австралия) (265 км)
Погода на Острове Батерст (Северная территория, Австралия) (280 км)
Погода в Виктория-Ривер (Северная территория, Австралия) (288 км)

Пояснения к столбцам:

Ветер - указаны скорость ветра в м/с - средняя за 10 мин, порывы в срок и между сроками (в фигурных скобках) и направление, откуда дует ветер: С - северный, СВ - северо-восточный, В - восточный, ЮВ - юго-восточный, Ю - южный, ЮЗ - юго-западный, З - западный, СЗ - северо-западный.
Видимость - горизонтальная дальность видимости в метрах или километрах. При видимости от 1 до 10 км при отсутствии осадков обычно наблюдается дымка, при ухудшении видимости до 1 км и менее - туман. В сухую погоду видимость может ухудшаться дымом, пылью или мглою.
Явления - указаны атмосферные явления, наблюдавшиеся в срок или в последний час перед сроком; фигурными скобками обозначены явления, наблюдавшиеся между сроками (за 1-3 часа до срока); квадратными скобками обозначены град или гололедные отложения с указанием их диаметра в мм.
Облачность - указаны через наклонную черту общая и нижняя облачность в баллах и высота нижней границы облаков в метрах; квадратными скобками обозначены формы облаков: Ci - перистые, Cs - перисто-слоистые, Cc - перисто-кучевые, Ac - высококучевые, As - высокослоистые, Sc - слоисто-кучевые, Ns - слоисто-дождевые, Cu - кучевые, Cb - кучево-дождевые. Подробнее классификацию облаков см. в Атласе облаков (PDF).
T - Температура воздуха - температура, измеренная на высоте 2 м над землей.
Td - Температура точки росы - температура, при понижении до которой содержащийся в воздухе водяной пар достигнет насыщения.
f - Относительная влажность воздуха - влажноcть воздуха, измеренная на высоте 2 м над землей.
Te - Эффективная температура - температура, которую ощущает одетый по сезону человек в тени. Характеристика душности погоды. При расчете учитывается влияние влажности воздуха и скорости ветра на теплоощущения человека.
Tes - Эффективная температура на солнце - температура, которую ощущает человек, с поправкой на солнечный нагрев. Характеристика знойности погоды. Зависит от высоты солнца над горизонтом, облачности и скорости ветра. Ночью, в пасмурную погоду, а также при ветре 12 м/с и более поправка равна нулю.
P - Атмосферное давление - приведенное к уровню моря атмосферное давление.
Po - Атмосферное давление - измеренное на уровне метеостанции атмосферное давление.
Tmin - Минимальная температура - минимум температуры воздуха на высоте 2 м над землей.
Tmax - Максимальная температура - максимум температуры воздуха на высоте 2 м над землей.
R - Количество осадков - Количество выпавших осадков за период времени, мм. При наведении курсора мыши на число - период времени, за который выпало указанное количество осадков.
R24 - Количество осадков - Количество выпавших осадков за 24 часа, мм.
S - Снежный покров - Высота снежного покрова, см. При наведении курсора мыши на число - состояние снежного покрова и степень покрытия местности в баллах.